This is the latest recevied weather packets stored in our database for station/object KJ4AJP. If no packets are shown the sender has not sent any weather packets the latest 10 day(s).
| Time | Temp. | Humidity | Pressure | Rain* | Wind** | Luminosity | Snow |
|---|---|---|---|---|---|---|---|
| 1778072690 | 9.44° C | 92% | 1013.4 hPa | 0 mm | - | 59 W/m² | - |
| 1778072388 | 8.89° C | 92% | 1013.4 hPa | 0 mm | - | 60 W/m² | - |
| 1778072086 | 8.89° C | 92% | 1013 hPa | 0 mm | - | 60 W/m² | - |
| 1778071784 | 8.89° C | 94% | 1013.2 hPa | 0 mm | - | 60 W/m² | - |
| 1778071482 | 8.89° C | 95% | 1012.6 hPa | 0 mm | - | 65 W/m² | - |
| 1778071179 | 8.89° C | 96% | 1012.7 hPa | 0 mm | - | 46 W/m² | - |
| 1778070877 | 8.89° C | 96% | 1012.7 hPa | 0 mm | - | 48 W/m² | - |
| 1778070574 | 8.89° C | 96% | 1012.2 hPa | 0 mm | - | 45 W/m² | - |
| 1778070271 | 8.89° C | 97% | 1012.3 hPa | 0 mm | - | 29 W/m² | - |
| 1778069970 | 8.89° C | 97% | 1011.9 hPa | 0 mm | - | 29 W/m² | - |
| 1778069666 | 9.44° C | 97% | 1012 hPa | 0 mm | - | 20 W/m² | - |
| 1778069363 | 9.44° C | 97% | 1012.1 hPa | 0 mm | - | 18 W/m² | - |
| 1778069061 | 9.44° C | 97% | 1012.1 hPa | 0 mm | - | 17 W/m² | - |
| 1778068758 | 9.44° C | 97% | 1011.9 hPa | 0 mm | - | 14 W/m² | - |
| 1778068456 | 9.44° C | 97% | 1011.9 hPa | 0 mm | - | 12 W/m² | - |
| 1778068154 | 9.44° C | 97% | 1012.1 hPa | 0 mm | - | 9 W/m² | - |
| 1778067851 | 9.44° C | 97% | 1011.8 hPa | 0 mm | - | 11 W/m² | - |
| 1778067550 | 9.44° C | 97% | 1012 hPa | 0 mm | - | 9 W/m² | - |
| 1778067247 | 9.44° C | 97% | 1011.7 hPa | 0 mm | - | 11 W/m² | - |
| 1778066943 | 10° C | 97% | 1012.1 hPa | 0 mm | - | 6 W/m² | - |
| 1778066641 | 10° C | 98% | 1011.9 hPa | 0 mm | - | 5 W/m² | - |
| 1778066338 | 10° C | 98% | 1011.9 hPa | 0 mm | - | 3 W/m² | - |
| 1778066036 | 9.44° C | 98% | 1011.7 hPa | 0 mm | - | 2 W/m² | - |
| 1778065733 | 10° C | 98% | 1011.9 hPa | 0 mm | - | 1 W/m² | - |
| 1778065430 | 10° C | 98% | 1011.9 hPa | 0 mm | - | 0 W/m² | - |
* Rain latest hour (hover to see other rain measurements)
** Current wind speed in m/s (hover to see current wind gust speed)